�N����,����,�~����,�C��,���x,�C��,����,���ϕ���,�ő�u�ԕ���,�ő厞����,���˗�,�I�_���x,�n�����x,�ő啗���N��,DTYPE
"21/08/02","00:10",0.0,24.9,88.3,999.3,317.6,0.7,1.1,339.6,0.00,22.9,27.7,"00:04:00",1
"21/08/02","00:20",0.0,24.8,88.6,999.1,284.8,0.8,1.3,329.5,0.00,22.8,27.5,"00:13:36",1
"21/08/02","00:30",0.0,24.7,88.9,998.9,293.7,0.6,1.0,318.4,0.00,22.8,27.7,"00:22:00",1
"21/08/02","00:40",0.0,24.6,89.1,999.3,275.5,0.5,0.9,308.4,0.00,22.7,27.4,"00:31:12",1
"21/08/02","00:50",0.0,24.5,89.3,999.3,299.0,0.5,1.0,330.3,0.00,22.7,27.5,"00:42:16",1
"21/08/02","01:00",0.0,24.7,89.7,999.3,322.1,0.8,1.3,307.1,0.00,22.9,27.2,"00:58:00",1
"21/08/02","01:10",0.0,24.8,89.8,999.3,327.6,0.8,1.1,319.3,0.00,23.1,27.4,"01:00:08",1
"21/08/02","01:20",0.0,24.7,90.0,999.8,323.8,0.8,1.4,322.5,0.00,23.0,27.2,"01:17:20",1
"21/08/02","01:30",0.0,24.6,90.2,999.6,332.2,0.8,1.4,308.4,0.00,22.9,27.4,"01:22:32",1
"21/08/02","01:40",0.0,24.5,90.3,999.6,314.5,0.6,1.0,321.3,0.00,22.8,27.2,"01:30:08",1
"21/08/02","01:50",0.0,24.5,90.5,999.8,288.8,0.7,1.1,253.6,0.00,22.9,27.2,"01:46:48",1
"21/08/02","02:00",0.0,24.5,90.6,999.8,303.6,0.6,1.0,262.6,0.00,22.9,27.5,"01:51:04",1
"21/08/02","02:10",0.0,24.6,90.8,1000.0,343.8,1.0,2.1,345.8,0.00,23.0,27.1,"02:02:00",1
"21/08/02","02:20",0.0,24.6,90.8,999.8,347.3,0.7,1.3,334.7,0.00,23.0,27.1,"02:19:44",1
"21/08/02","02:30",0.0,24.4,90.9,1000.0,304.1,0.7,1.4,340.9,0.00,22.9,27.2,"02:20:24",1
"21/08/02","02:40",0.0,24.2,91.1,1000.3,279.3,0.6,1.1,305.1,0.00,22.7,27.2,"02:35:28",1
"21/08/02","02:50",0.0,24.1,91.2,1000.0,325.1,0.7,1.1,337.9,0.00,22.6,27.1,"02:47:44",1
"21/08/02","03:00",0.0,24.1,91.3,1000.0,310.4,0.7,1.7,325.5,0.00,22.6,27.1,"02:51:36",1
"21/08/02","03:10",0.0,24.1,91.4,1000.3,319.1,0.7,1.0,334.4,0.00,22.7,26.8,"03:01:28",1
"21/08/02","03:20",0.0,24.2,91.5,1000.3,285.7,0.7,1.2,266.6,0.00,22.8,26.9,"03:15:20",1
"21/08/02","03:30",0.0,24.1,91.6,1000.8,317.0,0.8,1.4,326.2,0.00,22.7,26.8,"03:25:36",1
"21/08/02","03:40",0.0,24.1,91.7,1000.5,330.3,0.7,1.0,340.2,0.00,22.7,27.1,"03:30:08",1
"21/08/02","03:50",0.0,24.0,91.8,1000.5,324.6,0.8,1.3,325.5,0.00,22.6,26.9,"03:47:52",1
"21/08/02","04:00",0.0,23.9,91.9,1000.5,324.8,0.8,1.0,341.4,0.00,22.5,26.8,"03:52:08",1
"21/08/02","04:10",0.0,23.9,92.0,1000.5,302.8,0.7,1.3,318.9,0.00,22.6,26.8,"04:08:32",1
"21/08/02","04:20",0.0,23.8,92.0,1000.8,303.2,0.6,1.1,317.7,0.00,22.5,26.9,"04:11:04",1
"21/08/02","04:30",0.0,23.8,92.1,1000.8,313.8,0.6,1.1,335.7,0.00,22.5,26.9,"04:26:48",1
"21/08/02","04:40",0.0,23.8,92.3,1000.8,341.8,0.8,1.4,359.6,0.00,22.5,26.7,"04:38:56",1
"21/08/02","04:50",0.0,23.7,92.3,1001.2,332.8,0.7,1.1,346.3,0.00,22.4,26.9,"04:41:28",1
"21/08/02","05:00",0.0,23.6,92.4,1001.0,302.2,0.5,0.9,311.3,0.00,22.3,26.7,"04:51:04",1
"21/08/02","05:10",0.0,23.6,92.5,1001.2,296.1,0.8,1.2,324.6,0.00,22.4,26.6,"05:08:00",1
"21/08/02","05:20",0.0,23.6,92.6,1001.2,283.8,0.8,1.1,319.6,0.00,22.4,26.6,"05:19:28",1
"21/08/02","05:30",0.0,23.7,92.7,1001.0,310.4,0.8,1.1,315.4,0.00,22.5,26.6,"05:20:08",1
"21/08/02","05:40",0.0,23.8,92.8,1001.2,324.0,1.0,1.2,339.8,0.00,22.6,26.7,"05:36:00",1
"21/08/02","05:50",0.0,23.8,92.9,1001.5,313.4,1.0,1.4,330.1,0.00,22.6,26.6,"05:43:44",1
"21/08/02","06:00",0.0,24.0,92.9,1001.5,291.7,0.7,1.0,267.2,0.01,22.8,26.5,"05:57:36",1
"21/08/02","06:10",0.0,24.3,93.0,1001.2,306.9,0.8,1.1,303.6,0.02,23.1,26.3,"06:07:52",1
"21/08/02","06:20",0.0,24.6,93.0,1001.0,301.7,0.7,1.1,338.0,0.03,23.4,26.5,"06:19:44",1
"21/08/02","06:30",0.0,24.7,92.9,1001.2,314.8,0.8,1.4,340.5,0.01,23.5,26.5,"06:20:08",1
"21/08/02","06:40",0.0,25.1,93.0,1001.5,319.9,0.7,1.1,350.4,0.02,23.9,26.4,"06:30:16",1
"21/08/02","06:50",0.0,25.6,93.0,1001.7,306.9,0.6,1.1,317.2,0.06,24.4,26.4,"06:43:20",1
"21/08/02","07:00",0.0,26.1,92.7,1001.5,333.6,0.6,1.2,337.1,0.06,24.9,26.3,"06:56:16",1
"21/08/02","07:10",0.0,26.7,92.6,1001.5,357.5,0.3,0.9,334.9,0.07,25.4,26.4,"07:02:08",1
"21/08/02","07:20",0.0,27.2,92.3,1001.5,254.0,0.1,1.0,347.6,0.10,25.9,26.3,"07:10:08",1
"21/08/02","07:30",0.0,27.8,91.9,1001.5,229.4,0.2,1.0,237.1,0.14,26.4,26.4,"07:25:04",1
"21/08/02","07:40",0.0,27.9,90.6,1000.8,165.5,0.2,1.2,180.5,0.16,26.3,26.6,"07:38:40",1
"21/08/02","07:50",0.0,28.2,89.8,1000.5,225.1,0.6,1.8,227.6,0.18,26.4,26.4,"07:42:48",1
"21/08/02","08:00",0.0,28.4,87.4,1001.2,154.2,0.6,1.6,223.0,0.21,26.1,26.6,"07:53:04",1
"21/08/02","08:10",0.0,28.9,82.3,1001.7,166.7,1.0,2.6,215.8,0.24,25.6,26.6,"08:07:44",1
"21/08/02","08:20",0.0,29.6,77.8,1001.7,181.4,1.5,3.7,199.3,0.26,25.4,26.5,"08:10:48",1
"21/08/02","08:30",0.0,29.5,74.1,1001.7,188.1,1.3,2.6,207.8,0.28,24.4,26.5,"08:20:56",1
"21/08/02","08:40",0.0,30.5,71.9,1002.2,182.5,0.7,1.9,228.0,0.31,24.9,26.6,"08:30:08",1
"21/08/02","08:50",0.0,30.8,69.9,1002.2,150.9,1.2,2.6,145.9,0.29,24.7,26.9,"08:45:20",1
"21/08/02","09:00",0.0,30.9,68.7,1002.6,172.7,1.1,2.1,155.1,0.35,24.5,26.7,"08:57:36",1
"21/08/02","09:10",0.0,31.0,67.3,1002.2,163.7,1.6,3.2,129.6,0.38,24.3,26.6,"09:09:04",1
"21/08/02","09:20",0.0,31.1,66.3,1002.4,147.1,1.3,2.6,134.0,0.39,24.1,26.7,"09:17:04",1
"21/08/02","09:30",0.0,31.1,65.8,1002.4,175.6,1.6,4.8,214.5,0.35,24.0,26.9,"09:26:56",1
"21/08/02","09:40",0.0,31.4,65.4,1002.4,180.8,1.8,5.1,212.1,0.43,24.2,27.1,"09:35:12",1
"21/08/02","09:50",0.0,31.5,64.0,1002.6,178.7,2.0,4.1,208.2,0.46,23.9,27.0,"09:40:56",1
"21/08/02","10:00",0.0,31.9,62.7,1002.4,188.7,1.6,4.9,189.2,0.47,23.9,27.2,"09:52:56",1
"21/08/02","10:10",0.0,32.2,61.2,1002.6,173.9,1.3,4.0,208.1,0.46,23.8,27.3,"10:00:16",1
"21/08/02","10:20",0.0,32.8,60.7,1002.9,163.1,1.2,3.3,214.8,0.52,24.2,27.3,"10:15:44",1
"21/08/02","10:30",0.0,33.4,60.7,1002.9,149.3,1.6,2.8,206.4,0.51,24.8,27.3,"10:20:40",1
"21/08/02","10:40",0.0,32.6,59.9,1002.6,156.6,1.8,4.4,157.3,0.45,23.8,27.4,"10:34:56",1
"21/08/02","10:50",0.0,33.0,59.6,1002.4,163.6,2.1,5.1,224.4,0.57,24.1,27.6,"10:44:56",1
"21/08/02","11:00",0.0,33.6,57.7,1002.4,159.2,1.7,3.3,225.1,0.57,24.1,27.7,"10:50:56",1
"21/08/02","11:10",0.0,33.6,56.9,1002.2,168.4,1.5,5.4,211.8,0.45,23.9,27.7,"11:06:16",1
"21/08/02","11:20",0.0,33.8,55.4,1002.2,152.1,1.2,4.3,170.3,0.47,23.7,28.0,"11:12:16",1
"21/08/02","11:30",0.0,33.6,53.9,1002.4,176.5,2.3,5.6,208.5,0.51,23.0,27.7,"11:25:36",1
"21/08/02","11:40",0.0,33.9,56.0,1002.2,163.1,1.8,4.1,156.3,0.55,23.9,28.1,"11:30:40",1
"21/08/02","11:50",0.0,33.8,54.6,1002.2,163.7,2.2,4.8,194.2,0.51,23.4,28.1,"11:45:04",1
"21/08/02","12:00",0.0,33.7,54.2,1001.9,147.3,1.1,2.9,150.2,0.30,23.2,28.2,"11:50:08",1
"21/08/02","12:10",0.0,33.8,53.1,1001.9,175.9,2.0,5.4,223.2,0.54,23.0,28.3,"12:01:28",1
"21/08/02","12:20",0.0,34.4,51.0,1001.9,153.6,1.7,4.4,129.0,0.62,22.8,28.4,"12:10:16",1
"21/08/02","12:30",0.0,34.0,52.1,1001.9,151.8,1.6,3.5,127.5,0.44,22.8,28.5,"12:24:48",1
"21/08/02","12:40",0.0,33.6,53.8,1001.7,169.8,1.0,2.4,170.2,0.19,23.0,28.5,"12:31:04",1
"21/08/02","12:50",0.0,33.7,54.5,1001.9,160.1,1.2,3.6,180.4,0.28,23.3,28.4,"12:47:20",1
"21/08/02","13:00",0.0,33.3,54.9,1001.7,168.2,1.3,2.8,204.1,0.19,23.0,28.7,"12:51:44",1
"21/08/02","13:10",0.0,33.9,57.0,1001.5,161.5,1.7,3.2,181.5,0.43,24.2,28.8,"13:06:24",1
"21/08/02","13:20",0.0,35.3,53.6,1002.2,173.5,1.3,3.3,204.7,0.64,24.5,28.8,"13:14:00",1
"21/08/02","13:30",0.0,35.5,52.2,1002.2,162.2,1.6,3.6,150.7,0.58,24.2,28.9,"13:24:08",1
"21/08/02","13:40",0.0,36.0,48.0,1002.4,139.7,1.2,3.5,128.0,0.54,23.3,28.9,"13:39:52",1
"21/08/02","13:50",0.0,34.6,52.6,1002.4,174.0,1.5,3.2,218.7,0.27,23.5,29.2,"13:45:52",1
"21/08/02","14:00",0.0,34.5,52.3,1002.2,175.2,2.1,4.3,214.7,0.41,23.3,29.1,"13:53:04",1
"21/08/02","14:10",0.0,34.9,50.4,1002.2,159.9,1.8,4.2,197.5,0.42,23.1,29.0,"14:01:28",1
"21/08/02","14:20",0.0,34.2,52.3,1002.2,138.9,1.2,2.0,118.2,0.17,23.1,29.2,"14:18:00",1
"21/08/02","14:30",0.0,33.2,54.3,1001.5,165.0,1.3,3.2,233.0,0.07,22.8,29.4,"14:21:04",1
"21/08/02","14:40",0.0,33.1,56.3,1001.2,89.7,0.8,2.2,151.8,0.07,23.3,29.1,"14:32:40",1
"21/08/02","14:50",0.0,33.0,57.3,1001.2,46.6,1.1,3.5,47.7,0.08,23.5,29.4,"14:49:04",1
"21/08/02","15:00",0.0,32.7,58.3,1000.8,41.5,1.2,5.9,15.6,0.07,23.5,29.2,"14:54:00",1
"21/08/02","15:10",0.0,32.5,59.4,1000.8,103.9,1.0,2.1,64.0,0.07,23.6,29.2,"15:04:00",1
"21/08/02","15:20",0.0,32.3,59.0,1000.5,132.0,1.5,3.2,135.3,0.08,23.3,29.1,"15:15:04",1
"21/08/02","15:30",0.0,32.6,58.6,1000.0,131.4,1.0,2.6,125.2,0.11,23.5,29.0,"15:20:08",1
"21/08/02","15:40",0.0,33.0,61.1,1000.5,6.4,0.8,1.9,50.4,0.12,24.5,29.1,"15:37:12",1
"21/08/02","15:50",0.0,32.8,59.2,1000.5,33.0,0.8,2.7,15.7,0.11,23.8,29.2,"15:49:20",1
"21/08/02","16:00",0.0,33.0,55.9,1000.3,74.2,0.8,1.9,33.5,0.11,23.1,29.1,"15:51:36",1
"21/08/02","16:10",0.0,33.4,54.4,1000.5,53.0,0.7,2.9,41.1,0.15,23.0,29.2,"16:06:40",1
"21/08/02","16:20",0.0,33.9,51.0,1000.5,41.5,1.0,2.5,33.9,0.22,22.4,29.3,"16:19:04",1
"21/08/02","16:30",0.0,33.5,51.8,1001.2,49.4,1.0,2.2,52.8,0.11,22.3,29.3,"16:26:08",1
"21/08/02","16:40",0.0,33.2,50.5,1000.5,83.5,1.0,2.4,66.8,0.07,21.6,29.3,"16:30:02",1
"21/08/02","16:50",0.0,33.0,50.9,1000.8,103.5,0.8,2.1,131.3,0.07,21.5,29.1,"16:48:48",1
"21/08/02","17:00",0.0,33.5,49.6,1000.8,95.8,1.0,2.2,108.9,0.14,21.6,29.2,"16:59:44",1
"21/08/02","17:10",0.0,33.7,48.3,1000.8,116.4,1.1,2.4,86.4,0.13,21.3,29.0,"17:00:32",1
"21/08/02","17:20",0.0,33.0,47.7,1000.8,105.2,1.2,2.7,110.7,0.05,20.5,29.2,"17:13:52",1
"21/08/02","17:30",0.0,32.8,49.4,1000.8,86.4,1.0,2.5,119.7,0.05,20.9,29.2,"17:20:24",1
"21/08/02","17:40",0.0,32.6,48.6,1000.8,90.1,1.1,2.5,110.2,0.05,20.4,29.2,"17:36:08",1
"21/08/02","17:50",0.0,32.8,46.7,1000.8,99.7,1.3,4.0,64.5,0.05,19.9,29.0,"17:42:16",1
"21/08/02","18:00",0.0,32.8,47.7,1000.8,110.7,1.1,2.6,111.0,0.03,20.3,29.1,"17:52:00",1
"21/08/02","18:10",0.0,32.8,47.4,1000.8,122.4,1.1,3.2,108.2,0.03,20.2,28.9,"18:02:32",1
"21/08/02","18:20",0.0,32.3,49.1,1001.0,116.7,1.1,3.4,120.8,0.02,20.3,29.0,"18:10:40",1
"21/08/02","18:30",0.0,31.9,48.6,1000.8,105.1,1.1,2.5,74.3,0.01,19.8,29.0,"18:23:04",1
"21/08/02","18:40",0.0,31.7,48.3,1000.8,114.2,1.2,2.7,165.4,0.01,19.5,28.9,"18:34:08",1
"21/08/02","18:50",0.0,31.5,49.2,1000.8,103.1,1.1,2.5,96.1,0.00,19.6,28.8,"18:44:40",1
"21/08/02","19:00",0.0,31.2,49.7,1000.5,97.1,1.0,2.6,88.1,0.00,19.5,28.8,"18:55:12",1
"21/08/02","19:10",0.0,31.2,50.5,1000.8,97.3,1.2,2.7,103.7,0.00,19.7,28.8,"19:03:28",1
"21/08/02","19:20",0.0,31.0,51.2,1001.2,98.6,1.0,2.7,98.4,0.00,19.8,28.8,"19:14:08",1
"21/08/02","19:30",0.0,30.7,50.1,1000.5,98.7,1.0,2.2,77.6,0.00,19.2,28.6,"19:20:16",1
"21/08/02","19:40",0.0,30.1,51.3,1000.8,114.1,0.6,1.7,150.0,0.00,19.0,28.6,"19:36:56",1
"21/08/02","19:50",0.0,29.9,51.7,1000.5,129.1,0.7,2.7,101.6,0.00,18.9,28.6,"19:41:36",1
"21/08/02","20:00",0.0,29.3,55.8,1000.3,7.8,0.8,1.8,11.0,0.00,19.6,28.5,"19:57:04",1
"21/08/02","20:10",0.0,28.4,60.1,1001.0,351.4,1.0,1.8,352.3,0.00,20.0,28.5,"20:06:48",1
"21/08/02","20:20",0.0,27.9,61.7,1001.5,4.9,0.8,1.7,350.4,0.00,19.9,28.6,"20:10:08",1
"21/08/02","20:30",0.0,28.0,61.0,1001.7,64.3,0.6,1.6,68.0,0.00,19.8,28.4,"20:26:24",1
"21/08/02","20:40",0.0,28.3,60.1,1001.5,21.0,0.6,1.6,23.9,0.00,19.9,28.2,"20:36:32",1
"21/08/02","20:50",0.0,28.4,60.5,1001.7,45.8,0.5,2.8,88.4,0.00,20.1,28.2,"20:46:00",1
"21/08/02","21:00",0.0,28.3,61.7,1002.2,54.4,0.6,1.7,111.3,0.00,20.3,28.0,"20:58:16",1
"21/08/02","21:10",0.0,28.4,62.3,1002.2,85.7,0.6,1.9,138.2,0.00,20.5,28.2,"21:04:32",1
"21/08/02","21:20",0.0,28.5,63.0,1002.2,7.6,0.7,1.4,120.1,0.00,20.8,28.0,"21:11:44",1
"21/08/02","21:30",0.0,28.4,64.1,1001.9,49.9,0.7,1.7,119.3,0.00,21.0,27.8,"21:21:44",1
"21/08/02","21:40",0.0,28.3,64.5,1002.2,2.5,0.7,1.6,325.6,0.00,21.0,28.0,"21:35:04",1
"21/08/02","21:50",0.0,28.1,65.8,1002.4,27.2,0.5,1.6,44.3,0.00,21.1,27.8,"21:41:28",1
"21/08/02","22:00",0.0,27.9,66.9,1002.4,352.2,0.3,1.3,350.5,0.00,21.2,27.9,"21:50:56",1
"21/08/02","22:10",0.0,28.0,68.4,1002.2,351.7,0.7,1.8,358.1,0.00,21.7,27.8,"22:04:56",1
"21/08/02","22:20",0.0,27.8,69.9,1002.2,292.9,0.5,1.1,309.7,0.00,21.8,27.7,"22:17:20",1
"21/08/02","22:30",0.0,27.4,71.5,1002.2,314.0,0.7,1.2,332.6,0.00,21.8,27.9,"22:24:56",1
"21/08/02","22:40",0.0,27.3,72.6,1002.2,334.7,0.7,1.1,341.0,0.00,22.0,27.9,"22:33:28",1
"21/08/02","22:50",0.0,27.3,74.1,1002.2,344.3,0.7,1.7,346.8,0.00,22.3,27.7,"22:47:44",1
"21/08/02","23:00",0.0,27.1,75.8,1002.4,348.3,0.8,1.7,346.1,0.00,22.5,27.7,"22:52:32",1
"21/08/02","23:10",0.0,27.0,76.8,1002.2,316.3,0.6,1.2,317.6,0.00,22.6,27.7,"23:09:20",1
"21/08/02","23:20",0.0,26.9,77.3,1002.2,299.0,0.5,1.3,341.8,0.00,22.6,27.6,"23:18:16",1
"21/08/02","23:30",0.0,27.0,77.6,1001.9,332.0,0.6,1.3,331.2,0.00,22.8,27.7,"23:25:52",1
"21/08/02","23:40",0.0,27.2,78.0,1002.4,340.6,0.6,1.3,170.5,0.00,23.1,27.7,"23:35:20",1
"21/08/02","23:50",0.0,27.4,78.4,1002.4,337.3,0.8,1.7,342.6,0.00,23.3,27.6,"23:45:12",1
"21/08/02","24:00",0.0,27.2,78.9,1002.4,293.2,0.6,1.4,345.7,0.00,23.3,27.4,"23:50:08",1
